Time,TemperatureF,DewpointF,PressureIn,WindDirection,WindDirectionDegrees,WindSpeedMPH,WindSpeedGustMPH,Humidity,HourlyPrecipIn,Conditions,Clouds,dailyrainin,SoftwareType,DateUTC
2013-06-11 00:01:00,68.1,66.9,29.95,WSW,251,5.0,5.0,96,0.00,,,0.00,Wunderground v.1.15,2013-06-11 04:01:00,
2013-06-11 00:11:00,68.6,67.7,29.95,SW,222,6.0,8.0,97,0.00,,,0.00,Wunderground v.1.15,2013-06-11 04:11:00,
2013-06-11 00:21:00,68.9,67.7,29.94,SW,234,6.0,6.0,96,0.00,,,0.00,Wunderground v.1.15,2013-06-11 04:21:00,
2013-06-11 00:31:00,69.1,67.9,29.94,SW,233,5.0,5.0,96,0.00,,,0.00,Wunderground v.1.15,2013-06-11 04:31:00,
2013-06-11 00:41:00,69.2,68.0,29.94,SW,235,5.0,7.0,96,0.00,,,0.00,Wunderground v.1.15,2013-06-11 04:41:00,
2013-06-11 00:51:00,69.4,68.2,29.94,SW,229,6.0,6.0,96,0.00,,,0.00,Wunderground v.1.15,2013-06-11 04:51:00,
2013-06-11 01:01:00,69.6,68.4,29.94,SSW,198,5.0,9.0,96,0.00,,,0.00,Wunderground v.1.15,2013-06-11 05:01:00,
2013-06-11 01:11:00,69.7,68.5,29.93,SW,236,6.0,6.0,96,0.00,,,0.00,Wunderground v.1.15,2013-06-11 05:11:00,
2013-06-11 01:21:00,69.8,68.6,29.93,WSW,248,5.0,5.0,96,0.00,,,0.00,Wunderground v.1.15,2013-06-11 05:21:00,
2013-06-11 01:31:00,69.9,68.7,29.93,SW,230,4.0,4.0,96,0.00,,,0.00,Wunderground v.1.15,2013-06-11 05:31:00,
2013-06-11 01:41:00,70.0,68.8,29.93,SW,214,4.0,4.0,96,0.00,,,0.00,Wunderground v.1.15,2013-06-11 05:41:00,
2013-06-11 01:51:00,70.1,68.6,29.92,SW,227,3.0,5.0,95,0.00,,,0.01,Wunderground v.1.15,2013-06-11 05:51:00,
2013-06-11 02:01:00,70.1,68.9,29.93,WNW,290,5.0,5.0,96,0.00,,,0.01,Wunderground v.1.15,2013-06-11 06:01:00,
2013-06-11 02:11:00,70.2,69.0,29.93,WSW,258,5.0,5.0,96,0.00,,,0.01,Wunderground v.1.15,2013-06-11 06:11:00,
2013-06-11 02:21:00,70.2,69.0,29.93,SW,217,5.0,5.0,96,0.00,,,0.01,Wunderground v.1.15,2013-06-11 06:21:00,
2013-06-11 02:31:00,70.3,69.1,29.92,SSW,209,4.0,5.0,96,0.00,,,0.01,Wunderground v.1.15,2013-06-11 06:31:00,
2013-06-11 02:41:00,70.5,69.0,29.93,SW,229,6.0,6.0,95,0.00,,,0.01,Wunderground v.1.15,2013-06-11 06:41:00,
2013-06-11 02:51:00,70.6,69.1,29.92,SW,225,5.0,5.0,95,0.00,,,0.01,Wunderground v.1.15,2013-06-11 06:51:00,
2013-06-11 03:01:00,70.8,69.3,29.92,SSW,213,4.0,5.0,95,0.00,,,0.01,Wunderground v.1.15,2013-06-11 07:01:00,
2013-06-11 03:11:00,70.9,69.4,29.92,SW,227,4.0,4.0,95,0.00,,,0.01,Wunderground v.1.15,2013-06-11 07:11:00,
2013-06-11 03:21:00,70.9,69.4,29.92,SW,227,4.0,4.0,95,0.00,,,0.01,Wunderground v.1.15,2013-06-11 07:21:00,
2013-06-11 03:31:00,70.9,69.4,29.92,SW,227,4.0,5.0,95,0.00,,,0.01,Wunderground v.1.15,2013-06-11 07:31:00,
2013-06-11 03:41:00,71.0,69.5,29.92,SW,232,4.0,4.0,95,0.00,,,0.01,Wunderground v.1.15,2013-06-11 07:41:00,
2013-06-11 03:51:00,70.9,69.4,29.92,SSW,206,3.0,3.0,95,0.00,,,0.01,Wunderground v.1.15,2013-06-11 07:51:00,
2013-06-11 04:01:00,70.8,69.3,29.92,SSW,207,3.0,4.0,95,0.00,,,0.01,Wunderground v.1.15,2013-06-11 08:01:00,
2013-06-11 04:11:00,70.8,69.3,29.92,SW,221,4.0,5.0,95,0.00,,,0.01,Wunderground v.1.15,2013-06-11 08:11:00,
2013-06-11 04:21:00,70.9,69.4,29.92,WSW,246,5.0,5.0,95,0.00,,,0.01,Wunderground v.1.15,2013-06-11 08:21:00,
2013-06-11 04:31:00,70.8,69.6,29.92,SW,229,3.0,4.0,96,0.00,,,0.01,Wunderground v.1.15,2013-06-11 08:31:00,
2013-06-11 04:41:00,71.0,69.8,29.92,West,259,2.0,2.0,96,0.00,,,0.01,Wunderground v.1.15,2013-06-11 08:41:00,
2013-06-11 04:51:00,71.0,69.5,29.92,WSW,248,2.0,2.0,95,0.00,,,0.01,Wunderground v.1.15,2013-06-11 08:51:00,
2013-06-11 05:01:00,70.9,69.7,29.92,WSW,258,1.0,1.0,96,0.00,,,0.01,Wunderground v.1.15,2013-06-11 09:01:00,
2013-06-11 05:11:00,70.9,69.7,29.92,West,261,1.0,2.0,96,0.00,,,0.01,Wunderground v.1.15,2013-06-11 09:11:00,
2013-06-11 05:22:00,70.8,69.6,29.91,SSW,200,2.0,5.0,96,0.00,,,0.01,Wunderground v.1.15,2013-06-11 09:22:00,
2013-06-11 05:31:00,70.8,69.6,29.92,SW,219,4.0,4.0,96,0.00,,,0.02,Wunderground v.1.15,2013-06-11 09:31:00,
2013-06-11 05:42:00,70.7,69.5,29.91,SW,229,4.0,10.0,96,0.00,,,0.02,Wunderground v.1.15,2013-06-11 09:42:00,
2013-06-11 05:51:00,70.8,69.3,29.91,SW,225,6.0,6.0,95,0.00,,,0.02,Wunderground v.1.15,2013-06-11 09:51:00,
2013-06-11 06:01:00,70.7,69.2,29.92,SW,220,4.0,4.0,95,0.00,,,0.02,Wunderground v.1.15,2013-06-11 10:01:00,
2013-06-11 06:11:00,70.6,69.4,29.92,WSW,240,4.0,7.0,96,0.00,,,0.02,Wunderground v.1.15,2013-06-11 10:11:00,
2013-06-11 06:22:00,70.5,69.3,29.93,WSW,252,3.0,3.0,96,0.00,,,0.02,Wunderground v.1.15,2013-06-11 10:22:00,
2013-06-11 06:31:00,70.4,69.2,29.92,WSW,239,4.0,4.0,96,0.00,,,0.02,Wunderground v.1.15,2013-06-11 10:31:00,
2013-06-11 06:41:00,70.3,69.1,29.93,West,272,3.0,3.0,96,0.00,,,0.02,Wunderground v.1.15,2013-06-11 10:41:00,
2013-06-11 06:51:00,70.4,69.2,29.93,WSW,258,3.0,3.0,96,0.00,,,0.02,Wunderground v.1.15,2013-06-11 10:51:00,
2013-06-11 07:01:00,70.5,69.0,29.93,West,274,4.0,4.0,95,0.00,,,0.02,Wunderground v.1.15,2013-06-11 11:01:00,
2013-06-11 07:11:00,70.7,69.2,29.93,WSW,238,5.0,5.0,95,0.00,,,0.02,Wunderground v.1.15,2013-06-11 11:11:00,
2013-06-11 07:21:00,70.9,69.4,29.93,SW,234,4.0,4.0,95,0.00,,,0.02,Wunderground v.1.15,2013-06-11 11:21:00,
2013-06-11 07:31:00,71.1,69.3,29.94,WSW,244,5.0,6.0,94,0.00,,,0.02,Wunderground v.1.15,2013-06-11 11:31:00,
2013-06-11 07:41:00,71.4,69.6,29.94,SW,227,5.0,6.0,94,0.00,,,0.02,Wunderground v.1.15,2013-06-11 11:41:00,
2013-06-11 07:51:00,71.7,69.9,29.95,SSW,213,6.0,6.0,94,0.00,,,0.02,Wunderground v.1.15,2013-06-11 11:51:00,
2013-06-11 08:01:00,72.2,70.4,29.95,West,273,5.0,5.0,94,0.00,,,0.02,Wunderground v.1.15,2013-06-11 12:01:00,
2013-06-11 08:11:00,72.3,70.2,29.96,SW,225,5.0,7.0,93,0.00,,,0.02,Wunderground v.1.15,2013-06-11 12:11:00,
2013-06-11 08:21:00,72.4,70.6,29.96,WSW,237,6.0,6.0,94,0.00,,,0.02,Wunderground v.1.15,2013-06-11 12:21:00,
2013-06-11 08:31:00,72.7,70.6,29.96,West,279,5.0,6.0,93,0.00,,,0.02,Wunderground v.1.15,2013-06-11 12:31:00,
2013-06-11 08:41:00,73.8,71.3,29.96,WSW,246,5.0,9.0,92,0.00,,,0.02,Wunderground v.1.15,2013-06-11 12:41:00,
2013-06-11 08:51:00,74.4,71.9,29.96,WSW,253,6.0,6.0,92,0.00,,,0.02,Wunderground v.1.15,2013-06-11 12:51:00,
2013-06-11 09:01:00,75.0,72.2,29.96,SSW,198,5.0,5.0,91,0.00,,,0.02,Wunderground v.1.15,2013-06-11 13:01:00,
2013-06-11 09:11:00,75.5,72.0,29.96,SW,234,6.0,6.0,89,0.00,,,0.02,Wunderground v.1.15,2013-06-11 13:11:00,
2013-06-11 09:21:00,76.0,72.5,29.96,West,277,6.0,6.0,89,0.00,,,0.02,Wunderground v.1.15,2013-06-11 13:21:00,
2013-06-11 09:31:00,76.7,72.5,29.96,WSW,248,5.0,5.0,87,0.00,,,0.02,Wunderground v.1.15,2013-06-11 13:31:00,
2013-06-11 09:41:00,77.0,72.5,29.96,WSW,242,7.0,9.0,86,0.00,,,0.02,Wunderground v.1.15,2013-06-11 13:41:00,
2013-06-11 09:51:00,77.6,73.1,29.96,WSW,250,6.0,6.0,86,0.00,,,0.02,Wunderground v.1.15,2013-06-11 13:51:00,
2013-06-11 10:01:00,78.0,72.8,29.95,SW,221,6.0,6.0,84,0.00,,,0.02,Wunderground v.1.15,2013-06-11 14:01:00,
2013-06-11 10:11:00,78.4,72.4,29.95,WSW,258,6.0,7.0,82,0.00,,,0.02,Wunderground v.1.15,2013-06-11 14:11:00,
2013-06-11 10:21:00,79.2,72.5,29.95,West,259,7.0,8.0,80,0.00,,,0.02,Wunderground v.1.15,2013-06-11 14:21:00,
2013-06-11 10:31:00,79.5,72.8,29.95,West,264,7.0,7.0,80,0.00,,,0.02,Wunderground v.1.15,2013-06-11 14:31:00,
2013-06-11 10:41:00,79.8,71.9,29.95,West,273,7.0,7.0,77,0.00,,,0.02,Wunderground v.1.15,2013-06-11 14:41:00,
2013-06-11 10:51:00,79.9,71.7,29.95,WSW,244,7.0,7.0,76,0.00,,,0.02,Wunderground v.1.15,2013-06-11 14:51:00,
2013-06-11 11:01:00,80.5,72.2,29.95,WSW,251,6.0,11.0,76,0.00,,,0.02,Wunderground v.1.15,2013-06-11 15:01:00,
2013-06-11 11:11:00,81.0,73.1,29.95,WSW,239,6.0,7.0,77,0.00,,,0.02,Wunderground v.1.15,2013-06-11 15:11:00,
2013-06-11 11:21:00,81.2,71.7,29.95,West,279,6.0,8.0,73,0.00,,,0.02,Wunderground v.1.15,2013-06-11 15:21:00,
2013-06-11 11:31:00,81.5,71.6,29.95,WSW,257,7.0,7.0,72,0.00,,,0.02,Wunderground v.1.15,2013-06-11 15:31:00,
2013-06-11 11:41:00,81.6,71.7,29.95,West,269,6.0,8.0,72,0.00,,,0.02,Wunderground v.1.15,2013-06-11 15:41:00,
2013-06-11 11:52:00,81.8,71.5,29.95,WSW,250,7.0,11.0,71,0.00,,,0.02,Wunderground v.1.15,2013-06-11 15:52:00,
2013-06-11 12:01:00,82.9,71.3,29.94,WSW,244,7.0,7.0,68,0.00,,,0.02,Wunderground v.1.15,2013-06-11 16:01:00,
2013-06-11 12:11:00,83.0,70.9,29.95,West,268,7.0,7.0,67,0.00,,,0.02,Wunderground v.1.15,2013-06-11 16:11:00,
2013-06-11 12:21:00,83.5,71.4,29.94,West,259,6.0,6.0,67,0.00,,,0.02,Wunderground v.1.15,2013-06-11 16:21:00,
2013-06-11 12:31:00,83.8,70.3,29.94,WNW,300,6.0,6.0,64,0.00,,,0.02,Wunderground v.1.15,2013-06-11 16:31:00,
2013-06-11 12:41:00,84.3,69.9,29.94,WNW,294,5.0,7.0,62,0.00,,,0.02,Wunderground v.1.15,2013-06-11 16:41:00,
2013-06-11 12:51:00,84.3,70.8,29.93,WNW,284,6.0,7.0,64,0.00,,,0.02,Wunderground v.1.15,2013-06-11 16:51:00,
2013-06-11 13:01:00,84.7,70.2,29.93,West,275,7.0,14.0,62,0.00,,,0.02,Wunderground v.1.15,2013-06-11 17:01:00,
2013-06-11 13:11:00,84.1,69.7,29.93,NW,325,7.0,7.0,62,0.00,,,0.02,Wunderground v.1.15,2013-06-11 17:11:00,
2013-06-11 13:21:00,85.2,70.7,29.93,SW,219,3.0,5.0,62,0.00,,,0.02,Wunderground v.1.15,2013-06-11 17:21:00,
2013-06-11 13:31:00,84.6,72.0,29.93,WSW,254,6.0,6.0,66,0.00,,,0.02,Wunderground v.1.15,2013-06-11 17:31:00,
2013-06-11 13:41:00,85.6,70.6,29.93,WSW,239,5.0,9.0,61,0.00,,,0.02,Wunderground v.1.15,2013-06-11 17:41:00,
2013-06-11 13:51:00,85.7,72.1,29.92,WSW,250,7.0,7.0,64,0.00,,,0.02,Wunderground v.1.15,2013-06-11 17:51:00,
2013-06-11 14:01:00,86.1,72.5,29.92,WSW,239,6.0,7.0,64,0.00,,,0.02,Wunderground v.1.15,2013-06-11 18:01:00,
2013-06-11 14:11:00,86.0,70.0,29.92,West,274,7.0,7.0,59,0.00,,,0.02,Wunderground v.1.15,2013-06-11 18:11:00,
2013-06-11 14:21:00,85.9,71.8,29.92,WSW,256,7.0,10.0,63,0.00,,,0.02,Wunderground v.1.15,2013-06-11 18:21:00,
2013-06-11 14:31:00,86.0,71.0,29.91,WSW,247,6.0,6.0,61,0.00,,,0.02,Wunderground v.1.15,2013-06-11 18:31:00,
2013-06-11 14:41:00,86.0,70.5,29.91,WNW,290,7.0,7.0,60,0.00,,,0.02,Wunderground v.1.15,2013-06-11 18:41:00,
2013-06-11 14:51:00,86.6,70.6,29.91,West,279,6.0,6.0,59,0.00,,,0.02,Wunderground v.1.15,2013-06-11 18:51:00,
2013-06-11 15:01:00,85.9,71.4,29.91,WSW,254,6.0,6.0,62,0.00,,,0.02,Wunderground v.1.15,2013-06-11 19:01:00,
2013-06-11 15:11:00,86.3,70.3,29.91,WSW,241,5.0,7.0,59,0.00,,,0.02,Wunderground v.1.15,2013-06-11 19:11:00,
2013-06-11 15:21:00,86.7,70.7,29.90,WSW,241,5.0,5.0,59,0.00,,,0.02,Wunderground v.1.15,2013-06-11 19:21:00,
2013-06-11 15:31:00,87.2,69.1,29.90,West,261,6.0,7.0,55,0.00,,,0.02,Wunderground v.1.15,2013-06-11 19:31:00,
2013-06-11 15:41:00,87.4,69.3,29.91,WSW,248,6.0,7.0,55,0.00,,,0.02,Wunderground v.1.15,2013-06-11 19:41:00,
2013-06-11 15:51:00,87.3,70.2,29.90,WSW,251,8.0,8.0,57,0.00,,,0.02,Wunderground v.1.15,2013-06-11 19:51:00,
2013-06-11 16:01:00,87.3,69.2,29.90,West,279,6.0,6.0,55,0.00,,,0.02,Wunderground v.1.15,2013-06-11 20:01:00,
2013-06-11 16:11:00,87.6,70.0,29.89,WSW,252,5.0,5.0,56,0.00,,,0.02,Wunderground v.1.15,2013-06-11 20:11:00,
2013-06-11 16:21:00,86.5,70.5,29.90,West,263,4.0,4.0,59,0.00,,,0.02,Wunderground v.1.15,2013-06-11 20:21:00,
2013-06-11 16:31:00,87.0,69.9,29.89,WNW,293,3.0,3.0,57,0.00,,,0.02,Wunderground v.1.15,2013-06-11 20:31:00,
2013-06-11 16:41:00,88.4,68.5,29.89,WNW,290,4.0,4.0,52,0.00,,,0.02,Wunderground v.1.15,2013-06-11 20:41:00,
2013-06-11 16:51:00,88.1,69.4,29.89,WSW,250,6.0,6.0,54,0.00,,,0.02,Wunderground v.1.15,2013-06-11 20:51:00,
2013-06-11 17:01:00,87.9,69.7,29.89,WSW,240,5.0,6.0,55,0.00,,,0.02,Wunderground v.1.15,2013-06-11 21:01:00,
2013-06-11 17:11:00,87.9,68.1,29.89,SW,236,5.0,8.0,52,0.00,,,0.02,Wunderground v.1.15,2013-06-11 21:11:00,
2013-06-11 17:21:00,88.1,68.8,29.89,WSW,242,6.0,6.0,53,0.00,,,0.02,Wunderground v.1.15,2013-06-11 21:21:00,
2013-06-11 17:31:00,88.0,69.3,29.89,WNW,288,5.0,5.0,54,0.00,,,0.02,Wunderground v.1.15,2013-06-11 21:31:00,
2013-06-11 17:41:00,88.0,69.3,29.88,WSW,251,5.0,5.0,54,0.00,,,0.02,Wunderground v.1.15,2013-06-11 21:41:00,
2013-06-11 17:51:00,87.9,68.6,29.88,West,261,4.0,4.0,53,0.00,,,0.02,Wunderground v.1.15,2013-06-11 21:51:00,
2013-06-11 18:01:00,87.9,68.6,29.88,WSW,258,4.0,7.0,53,0.00,,,0.02,Wunderground v.1.15,2013-06-11 22:01:00,
2013-06-11 18:11:00,87.6,67.8,29.88,WSW,246,5.0,6.0,52,0.00,,,0.02,Wunderground v.1.15,2013-06-11 22:11:00,
2013-06-11 18:21:00,87.6,67.8,29.88,WSW,256,5.0,5.0,52,0.00,,,0.02,Wunderground v.1.15,2013-06-11 22:21:00,
2013-06-11 18:31:00,87.4,67.6,29.88,WNW,302,5.0,5.0,52,0.00,,,0.02,Wunderground v.1.15,2013-06-11 22:31:00,
2013-06-11 18:41:00,87.3,68.1,29.87,WSW,239,4.0,4.0,53,0.00,,,0.02,Wunderground v.1.15,2013-06-11 22:41:00,
2013-06-11 18:51:00,86.9,67.7,29.88,WSW,251,5.0,5.0,53,0.00,,,0.02,Wunderground v.1.15,2013-06-11 22:51:00,
2013-06-11 19:01:00,86.7,69.1,29.88,WSW,239,3.0,3.0,56,0.00,,,0.02,Wunderground v.1.15,2013-06-11 23:01:00,
2013-06-11 19:11:00,86.4,69.4,29.88,WSW,252,3.0,3.0,57,0.00,,,0.02,Wunderground v.1.15,2013-06-11 23:11:00,
2013-06-11 19:21:00,85.9,68.9,29.88,WSW,251,3.0,3.0,57,0.00,,,0.02,Wunderground v.1.15,2013-06-11 23:21:00,
2013-06-11 19:31:00,85.7,69.2,29.88,West,267,1.0,1.0,58,0.00,,,0.02,Wunderground v.1.15,2013-06-11 23:31:00,
2013-06-11 19:41:00,85.6,70.1,29.89,West,267,1.0,2.0,60,0.00,,,0.02,Wunderground v.1.15,2013-06-11 23:41:00,
2013-06-11 19:51:00,84.8,69.4,29.89,SW,234,2.0,2.0,60,0.00,,,0.02,Wunderground v.1.15,2013-06-11 23:51:00,
2013-06-11 20:01:00,84.3,70.3,29.89,SW,234,1.0,1.0,63,0.00,,,0.02,Wunderground v.1.15,2013-06-12 00:01:00,
2013-06-11 20:11:00,82.5,71.3,29.89,SW,234,0.0,0.0,69,0.00,,,0.02,Wunderground v.1.15,2013-06-12 00:11:00,
2013-06-11 20:21:00,81.0,70.7,29.88,SW,234,0.0,0.0,71,0.00,,,0.02,Wunderground v.1.15,2013-06-12 00:21:00,
2013-06-11 20:31:00,80.0,71.0,29.88,SW,234,0.0,0.0,74,0.00,,,0.02,Wunderground v.1.15,2013-06-12 00:31:00,
2013-06-11 20:41:00,78.9,70.7,29.88,SW,234,0.0,0.0,76,0.00,,,0.02,Wunderground v.1.15,2013-06-12 00:41:00,
2013-06-11 20:51:00,78.5,70.3,29.88,SW,234,0.0,0.0,76,0.00,,,0.02,Wunderground v.1.15,2013-06-12 00:51:00,
2013-06-11 21:01:00,77.5,70.5,29.89,SW,234,0.0,0.0,79,0.00,,,0.02,Wunderground v.1.15,2013-06-12 01:01:00,
2013-06-11 21:11:00,76.6,70.7,29.89,SW,234,0.0,0.0,82,0.00,,,0.02,Wunderground v.1.15,2013-06-12 01:11:00,
2013-06-11 21:21:00,75.8,70.3,29.89,SW,234,0.0,0.0,83,0.00,,,0.02,Wunderground v.1.15,2013-06-12 01:21:00,
2013-06-11 21:31:00,74.8,70.0,29.90,SW,234,0.0,0.0,85,0.00,,,0.02,Wunderground v.1.15,2013-06-12 01:31:00,
2013-06-11 21:41:00,74.7,69.9,29.90,SW,234,0.0,0.0,85,0.00,,,0.02,Wunderground v.1.15,2013-06-12 01:41:00,
2013-06-11 21:51:00,74.3,69.8,29.90,SW,234,0.0,0.0,86,0.00,,,0.02,Wunderground v.1.15,2013-06-12 01:51:00,
2013-06-11 22:01:00,73.7,69.9,29.91,SW,234,0.0,0.0,88,0.00,,,0.02,Wunderground v.1.15,2013-06-12 02:01:00,
2013-06-11 22:11:00,73.2,69.8,29.92,SW,234,0.0,0.0,89,0.00,,,0.02,Wunderground v.1.15,2013-06-12 02:11:00,
2013-06-11 22:21:00,73.1,70.3,29.92,NW,306,0.0,0.0,91,0.00,,,0.02,Wunderground v.1.15,2013-06-12 02:21:00,
2013-06-11 22:31:00,72.9,70.4,29.92,NW,306,0.0,1.0,92,0.00,,,0.02,Wunderground v.1.15,2013-06-12 02:31:00,
2013-06-11 22:41:00,72.6,69.8,29.93,NW,306,0.0,0.0,91,0.00,,,0.02,Wunderground v.1.15,2013-06-12 02:41:00,
2013-06-11 22:51:00,72.4,69.9,29.93,NW,306,0.0,0.0,92,0.00,,,0.02,Wunderground v.1.15,2013-06-12 02:51:00,
2013-06-11 23:11:00,71.8,69.7,29.93,NW,306,0.0,0.0,93,0.00,,,0.02,Wunderground v.1.15,2013-06-12 03:11:00,
2013-06-11 23:21:00,71.6,69.2,29.94,NW,306,0.0,0.0,92,0.00,,,0.02,Wunderground v.1.15,2013-06-12 03:21:00,
2013-06-11 23:31:00,71.2,68.8,29.93,NW,306,1.0,1.0,92,0.00,,,0.02,Wunderground v.1.15,2013-06-12 03:31:00,
2013-06-11 23:41:00,71.0,68.6,29.93,NW,306,0.0,0.0,92,0.00,,,0.02,Wunderground v.1.15,2013-06-12 03:41:00,
2013-06-11 23:51:00,70.7,68.6,29.93,NW,306,0.0,0.0,93,0.00,,,0.02,Wunderground v.1.15,2013-06-12 03:51:00,